| time (UTC) | temp C | wind direction | speed KPH | gust KPH | rain 1hr cm | rain 24hr cm | rain mn cm | humidity % | barometer mb |
| 20260503222551 | 25 | 73 | 1.6 | 12.9 | 0.00 | 0.00 | 0.00 | 34 | 1017.1 |
| 20260503222051 | 25 | 101 | 6.4 | 12.9 | 0.00 | 0.00 | 0.00 | 31 | 1017.1 |
| 20260503221555 | 25 | 297 | 3.2 | 11.3 | 0.00 | 0.00 | 0.00 | 32 | 1017.2 |
| 20260503221052 | 25 | 70 | 3.2 | 20.9 | 0.00 | 0.00 | 0.00 | 33 | 1017.2 |
| 20260503220548 | 25 | 84 | 1.6 | 20.9 | 0.00 | 0.00 | 0.00 | 34 | 1017.3 |
| 20260503220058 | 25 | 65 | 3.2 | 11.3 | 0.00 | 0.00 | 0.00 | 32 | 1017.3 |
| 20260503215548 | 25 | 71 | 3.2 | 9.7 | 0.00 | 0.00 | 0.00 | 32 | 1017.3 |
| 20260503215048 | 25 | 84 | 3.2 | 11.3 | 0.00 | 0.00 | 0.00 | 33 | 1017.4 |
| 20260503214557 | 25 | 140 | 3.2 | 11.3 | 0.00 | 0.00 | 0.00 | 32 | 1017.5 |
| 20260503214048 | 25 | 37 | 3.2 | 11.3 | 0.00 | 0.00 | 0.00 | 32 | 1017.5 |
| 20260503213551 | 25 | 19 | 4.8 | 11.3 | 0.00 | 0.00 | 0.00 | 32 | 1017.6 |
| 20260503213053 | 25 | 96 | 3.2 | 11.3 | 0.00 | 0.00 | 0.00 | 34 | 1017.6 |
| 20260503212552 | 25 | 98 | 3.2 | 8.0 | 0.00 | 0.00 | 0.00 | 33 | 1017.6 |
| 20260503212051 | 25 | 51 | 3.2 | 9.7 | 0.00 | 0.00 | 0.00 | 31 | 1017.7 |
| 20260503211552 | 25 | 77 | 3.2 | 12.9 | 0.00 | 0.00 | 0.00 | 34 | 1018.0 |
| 20260503211050 | 25 | 156 | 4.8 | 12.9 | 0.00 | 0.00 | 0.00 | 34 | 1018.0 |
| 20260503210550 | 25 | 32 | 3.2 | 9.7 | 0.00 | 0.00 | 0.00 | 32 | 1018.0 |
| 20260503210055 | 25 | 79 | 4.8 | 12.9 | 0.00 | 0.00 | 0.00 | 37 | 1018.2 |
| 20260503205550 | 25 | 108 | 3.2 | 12.9 | 0.00 | 0.00 | 0.00 | 36 | 1018.1 |
| 20260503205050 | 25 | 74 | 3.2 | 9.7 | 0.00 | 0.00 | 0.00 | 34 | 1018.2 |
| 20260503204555 | 25 | 62 | 1.6 | 9.7 | 0.00 | 0.00 | 0.00 | 39 | 1018.2 |
| 20260503204050 | 24 | 84 | 4.8 | 9.7 | 0.00 | 0.00 | 0.00 | 34 | 1018.2 |
| 20260503203549 | 24 | 63 | 4.8 | 9.7 | 0.00 | 0.00 | 0.00 | 36 | 1018.4 |
| 20260503203057 | 25 | 95 | 1.6 | 9.7 | 0.00 | 0.00 | 0.00 | 35 | 1018.4 |
| 20260503202551 | 24 | 55 | 1.6 | 17.7 | 0.00 | 0.00 | 0.00 | 35 | 1018.4 |
| 20260503202051 | 24 | 82 | 1.6 | 17.7 | 0.00 | 0.00 | 0.00 | 36 | 1018.6 |
| 20260503201554 | 24 | 18 | 3.2 | 11.3 | 0.00 | 0.00 | 0.00 | 33 | 1018.6 |
| 20260503201052 | 24 | 102 | 3.2 | 11.3 | 0.00 | 0.00 | 0.00 | 35 | 1018.7 |
| 20260503200550 | 23 | 61 | 3.2 | 12.9 | 0.00 | 0.00 | 0.00 | 36 | 1018.9 |
| 20260503200100 | 23 | 85 | 3.2 | 16.1 | 0.00 | 0.00 | 0.00 | 36 | 1019.1 |
| 20260503195551 | 23 | 69 | 6.4 | 16.1 | 0.00 | 0.00 | 0.00 | 34 | 1019.2 |
| 20260503195050 | 23 | 335 | 4.8 | 14.5 | 0.00 | 0.00 | 0.00 | 34 | 1019.4 |
| 20260503194624 | 23 | 6 | 4.8 | 12.9 | 0.00 | 0.00 | 0.00 | 34 | 1019.5 |
| 20260503194053 | 23 | 39 | 6.4 | 12.9 | 0.00 | 0.00 | 0.00 | 35 | 1019.5 |
| 20260503193550 | 23 | 298 | 4.8 | 12.9 | 0.00 | 0.00 | 0.00 | 38 | 1019.5 |
| 20260503193101 | 23 | 37 | 4.8 | 9.7 | 0.00 | 0.00 | 0.00 | 37 | 1019.6 |
| 20260503192549 | 23 | 120 | 3.2 | 14.5 | 0.00 | 0.00 | 0.00 | 39 | 1019.6 |
| 20260503192055 | 23 | 58 | 4.8 | 14.5 | 0.00 | 0.00 | 0.00 | 37 | 1019.7 |
| 20260503191601 | 23 | 338 | 1.6 | 12.9 | 0.00 | 0.00 | 0.00 | 39 | 1019.8 |
| 20260503191050 | 23 | 92 | 6.4 | 16.1 | 0.00 | 0.00 | 0.00 | 39 | 1019.9 |
| 20260503190551 | 23 | 311 | 4.8 | 16.1 | 0.00 | 0.00 | 0.00 | 38 | 1020.0 |
| 20260503190056 | 23 | 306 | 6.4 | 17.7 | 0.00 | 0.00 | 0.00 | 37 | 1020.1 |
| 20260503185549 | 23 | 285 | 3.2 | 17.7 | 0.00 | 0.00 | 0.00 | 41 | 1020.1 |
| 20260503185054 | 23 | 56 | 6.4 | 14.5 | 0.00 | 0.00 | 0.00 | 40 | 1020.2 |
| 20260503184553 | 23 | 2 | 4.8 | 19.3 | 0.00 | 0.00 | 0.00 | 40 | 1020.2 |
| 20260503184050 | 23 | 78 | 4.8 | 19.3 | 0.00 | 0.00 | 0.00 | 40 | 1020.4 |
| 20260503183550 | 23 | 53 | 3.2 | 11.3 | 0.00 | 0.00 | 0.00 | 40 | 1020.5 |
| 20260503183058 | 23 | 142 | 3.2 | 11.3 | 0.00 | 0.00 | 0.00 | 45 | 1020.6 |
| 20260503182550 | 22 | 86 | 4.8 | 11.3 | 0.00 | 0.00 | 0.00 | 40 | 1020.7 |
| 20260503182050 | 22 | 103 | 3.2 | 11.3 | 0.00 | 0.00 | 0.00 | 41 | 1020.7 |
| 20260503181605 | 22 | 302 | 4.8 | 11.3 | 0.00 | 0.00 | 0.00 | 40 | 1021.0 |
| 20260503181055 | 22 | 86 | 4.8 | 11.3 | 0.00 | 0.00 | 0.00 | 40 | 1020.9 |
| 20260503180551 | 22 | 75 | 3.2 | 16.1 | 0.00 | 0.00 | 0.00 | 43 | 1020.9 |
| 20260503180055 | 22 | 58 | 4.8 | 16.1 | 0.00 | 0.00 | 0.00 | 41 | 1021.0 |
| 20260503175551 | 22 | 33 | 4.8 | 12.9 | 0.00 | 0.00 | 0.00 | 38 | 1021.1 |
| 20260503175050 | 22 | 81 | 4.8 | 17.7 | 0.00 | 0.00 | 0.00 | 40 | 1021.1 |
| 20260503174556 | 22 | 37 | 3.2 | 17.7 | 0.00 | 0.00 | 0.00 | 45 | 1021.3 |
| 20260503174050 | 22 | 75 | 4.8 | 14.5 | 0.00 | 0.00 | 0.00 | 40 | 1021.4 |
| 20260503173550 | 22 | 68 | 3.2 | 14.5 | 0.00 | 0.00 | 0.00 | 42 | 1021.5 |
| 20260503173100 | 22 | 356 | 1.6 | 9.7 | 0.00 | 0.00 | 0.00 | 40 | 1021.6 |
| 20260503172551 | 22 | 71 | 4.8 | 9.7 | 0.00 | 0.00 | 0.00 | 44 | 1021.7 |
| 20260503172049 | 22 | 46 | 3.2 | 11.3 | 0.00 | 0.00 | 0.00 | 40 | 1021.7 |
| 20260503171552 | 22 | 92 | 4.8 | 11.3 | 0.00 | 0.00 | 0.00 | 40 | 1021.8 |
| 20260503171050 | 21 | 4 | 3.2 | 14.5 | 0.00 | 0.00 | 0.00 | 41 | 1021.9 |
| 20260503170551 | 21 | 87 | 6.4 | 14.5 | 0.00 | 0.00 | 0.00 | 44 | 1022.1 |
| 20260503150550 | 18 | 37 | 3.2 | 11.3 | 0.00 | 0.00 | 0.00 | 52 | 1022.8 |
| 20260503131050 | 12 | 84 | 0.0 | 6.4 | 0.00 | 0.00 | 0.00 | 80 | 1022.8 |
| 20260503130550 | 11 | 78 | 0.0 | 6.4 | 0.00 | 0.00 | 0.00 | 83 | 1022.9 |
| 20260503120105 | 5 | 0 | 0.0 | 1.6 | 0.00 | 0.00 | 0.00 | 99 | 1022.5 |
| 20260503110551 | 4 | 0 | 0.0 | 0.0 | 0.00 | 0.00 | 0.00 | 98 | 1021.8 |
| 20260503081553 | 6 | 0 | 0.0 | 0.0 | 0.00 | 0.00 | 0.00 | 94 | 1021.6 |
| 20260503081049 | 6 | 0 | 0.0 | 0.0 | 0.00 | 0.00 | 0.00 | 94 | 1021.5 |
| 20260503080551 | 6 | 0 | 0.0 | 0.0 | 0.00 | 0.00 | 0.00 | 94 | 1021.5 |
| 20260503072556 | 6 | 0 | 0.0 | 0.0 | 0.00 | 0.00 | 0.00 | 92 | 1021.5 |
| 20260503072052 | 6 | 0 | 0.0 | 0.0 | 0.00 | 0.00 | 0.00 | 91 | 1021.5 |
| 20260503071557 | 6 | 0 | 0.0 | 0.0 | 0.00 | 0.00 | 0.00 | 90 | 1021.5 |
| 20260503071051 | 7 | 0 | 0.0 | 0.0 | 0.00 | 0.00 | 0.00 | 90 | 1021.4 |
| 20260503070551 | 7 | 0 | 0.0 | 0.0 | 0.00 | 0.00 | 0.00 | 90 | 1021.4 |
| 20260503055051 | 9 | 0 | 0.0 | 1.6 | 0.00 | 0.00 | 0.00 | 82 | 1021.3 |
| 20260503054559 | 9 | 0 | 0.0 | 1.6 | 0.00 | 0.00 | 0.00 | 82 | 1021.2 |
| 20260503054051 | 9 | 0 | 0.0 | 1.6 | 0.00 | 0.00 | 0.00 | 82 | 1021.3 |
| 20260503053548 | 9 | 0 | 0.0 | 0.0 | 0.00 | 0.00 | 0.00 | 82 | 1021.3 |
| 20260503053052 | 8 | 0 | 0.0 | 0.0 | 0.00 | 0.00 | 0.00 | 82 | 1021.4 |
| 20260503052552 | 9 | 0 | 0.0 | 0.0 | 0.00 | 0.00 | 0.00 | 81 | 1021.4 |
| 20260503052052 | 9 | 0 | 0.0 | 0.0 | 0.00 | 0.00 | 0.00 | 80 | 1021.3 |
| 20260503051553 | 9 | 0 | 0.0 | 0.0 | 0.00 | 0.00 | 0.00 | 80 | 1021.2 |
| 20260503051051 | 10 | 0 | 0.0 | 1.6 | 0.00 | 0.00 | 0.00 | 80 | 1021.2 |
| 20260503050551 | 10 | 0 | 0.0 | 1.6 | 0.00 | 0.00 | 0.00 | 79 | 1021.1 |
| 20260503050100 | 10 | 0 | 0.0 | 0.0 | 0.00 | 0.00 | 0.00 | 78 | 1021.1 |
| 20260503045553 | 10 | 0 | 0.0 | 1.6 | 0.00 | 0.00 | 0.00 | 77 | 1021.1 |
| 20260503045052 | 10 | 0 | 0.0 | 1.6 | 0.00 | 0.00 | 0.00 | 77 | 1021.0 |
| 20260503044612 | 10 | 0 | 0.0 | 1.6 | 0.00 | 0.00 | 0.00 | 77 | 1021.0 |
| 20260503044052 | 10 | 0 | 0.0 | 1.6 | 0.00 | 0.00 | 0.00 | 76 | 1020.9 |
| 20260503043551 | 10 | 0 | 0.0 | 1.6 | 0.00 | 0.00 | 0.00 | 75 | 1020.8 |
| 20260503043058 | 11 | 0 | 0.0 | 1.6 | 0.00 | 0.00 | 0.00 | 75 | 1020.8 |
| 20260503042552 | 11 | 0 | 0.0 | 1.6 | 0.00 | 0.00 | 0.00 | 74 | 1020.7 |
| 20260503042052 | 11 | 0 | 0.0 | 1.6 | 0.00 | 0.00 | 0.00 | 74 | 1020.7 |
| 20260503041610 | 11 | 0 | 0.0 | 1.6 | 0.00 | 0.00 | 0.00 | 74 | 1020.8 |
| 20260503041051 | 11 | 125 | 0.0 | 1.6 | 0.00 | 0.00 | 0.00 | 73 | 1020.7 |
| 20260503040551 | 11 | 0 | 0.0 | 1.6 | 0.00 | 0.00 | 0.00 | 73 | 1020.7 |
| 20260503040054 | 11 | 125 | 0.0 | 1.6 | 0.00 | 0.00 | 0.00 | 72 | 1020.7 |
| 20260503035555 | 11 | 0 | 0.0 | 1.6 | 0.00 | 0.00 | 0.00 | 72 | 1020.6 |
| 20260503035056 | 11 | 125 | 0.0 | 1.6 | 0.00 | 0.00 | 0.00 | 71 | 1020.6 |
| 20260503034554 | 12 | 0 | 0.0 | 1.6 | 0.00 | 0.00 | 0.00 | 71 | 1020.7 |
| 20260503034051 | 12 | 0 | 0.0 | 1.6 | 0.00 | 0.00 | 0.00 | 70 | 1020.6 |
| 20260503033551 | 12 | 125 | 0.0 | 1.6 | 0.00 | 0.00 | 0.00 | 70 | 1020.6 |
| 20260503033106 | 12 | 0 | 0.0 | 1.6 | 0.00 | 0.00 | 0.00 | 69 | 1020.7 |
| 20260503032551 | 12 | 0 | 0.0 | 3.2 | 0.00 | 0.00 | 0.00 | 68 | 1020.5 |
| 20260503032051 | 12 | 109 | 0.0 | 6.4 | 0.00 | 0.00 | 0.00 | 67 | 1020.5 |
| 20260503031550 | 12 | 110 | 0.0 | 6.4 | 0.00 | 0.00 | 0.00 | 66 | 1020.4 |
| 20260503031051 | 13 | 169 | 1.6 | 6.4 | 0.00 | 0.00 | 0.00 | 66 | 1020.5 |
| 20260503030549 | 13 | 143 | 0.0 | 8.0 | 0.00 | 0.00 | 0.00 | 65 | 1020.4 |
| 20260503030105 | 13 | 153 | 1.6 | 8.0 | 0.00 | 0.00 | 0.00 | 65 | 1020.4 |
| 20260503025551 | 13 | 176 | 0.0 | 6.4 | 0.00 | 0.00 | 0.00 | 64 | 1020.3 |
| 20260503025048 | 12 | 0 | 0.0 | 6.4 | 0.00 | 0.00 | 0.00 | 64 | 1020.3 |
| 20260503024601 | 13 | 118 | 0.0 | 6.4 | 0.00 | 0.00 | 0.00 | 63 | 1020.2 |
| 20260503024048 | 12 | 198 | 0.0 | 6.4 | 0.00 | 0.00 | 0.00 | 62 | 1020.2 |
| 20260503023551 | 12 | 119 | 1.6 | 6.4 | 0.00 | 0.00 | 0.00 | 61 | 1020.1 |
| 20260503023055 | 12 | 109 | 1.6 | 6.4 | 0.00 | 0.00 | 0.00 | 62 | 1020.1 |
| 20260503022551 | 12 | 0 | 0.0 | 1.6 | 0.00 | 0.00 | 0.00 | 62 | 1020.0 |
| 20260503022051 | 12 | 0 | 0.0 | 0.0 | 0.00 | 0.00 | 0.00 | 61 | 1019.9 |
| 20260503021554 | 12 | 0 | 0.0 | 0.0 | 0.00 | 0.00 | 0.00 | 61 | 1019.8 |
| 20260503021051 | 13 | 0 | 0.0 | 0.0 | 0.00 | 0.00 | 0.00 | 59 | 1019.7 |
| 20260503020551 | 13 | 0 | 0.0 | 0.0 | 0.00 | 0.00 | 0.00 | 57 | 1019.6 |
| 20260503020056 | 13 | 0 | 0.0 | 0.0 | 0.00 | 0.00 | 0.00 | 56 | 1019.6 |
| 20260503015555 | 13 | 0 | 0.0 | 1.6 | 0.00 | 0.00 | 0.00 | 56 | 1019.4 |
| 20260503015055 | 14 | 0 | 0.0 | 1.6 | 0.00 | 0.00 | 0.00 | 55 | 1019.4 |
| 20260503014553 | 14 | 0 | 0.0 | 1.6 | 0.00 | 0.00 | 0.00 | 55 | 1019.3 |
| 20260503014052 | 14 | 0 | 0.0 | 1.6 | 0.00 | 0.00 | 0.00 | 55 | 1019.2 |
| 20260503013553 | 14 | 0 | 0.0 | 1.6 | 0.00 | 0.00 | 0.00 | 54 | 1019.1 |
| 20260503013101 | 15 | 0 | 0.0 | 1.6 | 0.00 | 0.00 | 0.00 | 53 | 1018.9 |
| 20260503012552 | 15 | 141 | 0.0 | 1.6 | 0.00 | 0.00 | 0.00 | 52 | 1018.9 |
| 20260503012052 | 15 | 0 | 0.0 | 1.6 | 0.00 | 0.00 | 0.00 | 51 | 1018.9 |
| 20260503011607 | 15 | 141 | 0.0 | 1.6 | 0.00 | 0.00 | 0.00 | 51 | 1018.8 |
| 20260503011054 | 15 | 0 | 0.0 | 1.6 | 0.00 | 0.00 | 0.00 | 51 | 1018.7 |
| 20260503010551 | 16 | 150 | 0.0 | 1.6 | 0.00 | 0.00 | 0.00 | 50 | 1018.7 |
| 20260503005552 | 16 | 0 | 0.0 | 3.2 | 0.00 | 0.00 | 0.00 | 48 | 1018.7 |
| 20260503005052 | 16 | 150 | 0.0 | 1.6 | 0.00 | 0.00 | 0.00 | 48 | 1018.6 |
| 20260503004600 | 16 | 0 | 0.0 | 4.8 | 0.00 | 0.00 | 0.00 | 47 | 1018.5 |
| 20260503004051 | 17 | 0 | 0.0 | 6.4 | 0.00 | 0.00 | 0.00 | 46 | 1018.5 |
| 20260503003552 | 17 | 153 | 1.6 | 9.7 | 0.00 | 0.00 | 0.00 | 45 | 1018.5 |
| 20260503003105 | 17 | 149 | 0.0 | 9.7 | 0.00 | 0.00 | 0.00 | 45 | 1018.4 |
| 20260503002548 | 17 | 158 | 0.0 | 6.4 | 0.00 | 0.00 | 0.00 | 44 | 1018.3 |
| 20260503002051 | 17 | 134 | 0.0 | 6.4 | 0.00 | 0.00 | 0.00 | 45 | 1018.3 |
| 20260503001606 | 17 | 205 | 1.6 | 8.0 | 0.00 | 0.00 | 0.00 | 44 | 1018.2 |
| 20260503001052 | 18 | 117 | 1.6 | 8.0 | 0.00 | 0.00 | 0.00 | 45 | 1018.2 |
| 20260503000552 | 18 | 116 | 0.0 | 6.4 | 0.00 | 0.00 | 0.00 | 44 | 1018.1 |
| 20260503000100 | 18 | 154 | 1.6 | 8.0 | 0.00 | 0.00 | 0.00 | 43 | 1018.0 |
| 20260502235551 | 19 | 101 | 1.6 | 12.9 | 0.00 | 0.00 | 0.00 | 43 | 1017.8 |
| 20260502235051 | 19 | 150 | 1.6 | 12.9 | 0.00 | 0.00 | 0.00 | 41 | 1017.9 |
| 20260502234559 | 20 | 116 | 3.2 | 12.9 | 0.00 | 0.00 | 0.00 | 40 | 1018.0 |
| 20260502234052 | 20 | 91 | 1.6 | 8.0 | 0.00 | 0.00 | 0.00 | 42 | 1017.8 |
| 20260502233552 | 20 | 94 | 3.2 | 12.9 | 0.00 | 0.00 | 0.00 | 40 | 1017.7 |
| 20260502233059 | 20 | 93 | 3.2 | 12.9 | 0.00 | 0.00 | 0.00 | 41 | 1017.8 |
| 20260502232552 | 20 | 117 | 4.8 | 12.9 | 0.00 | 0.00 | 0.00 | 40 | 1017.8 |
| 20260502232048 | 20 | 203 | 3.2 | 8.0 | 0.00 | 0.00 | 0.00 | 39 | 1017.7 |
| 20260502231558 | 20 | 129 | 3.2 | 11.3 | 0.00 | 0.00 | 0.00 | 39 | 1017.7 |
| 20260502231054 | 20 | 90 | 4.8 | 11.3 | 0.00 | 0.00 | 0.00 | 39 | 1017.8 |
| 20260502230552 | 20 | 175 | 1.6 | 8.0 | 0.00 | 0.00 | 0.00 | 41 | 1017.8 |
| 20260502230101 | 20 | 103 | 3.2 | 11.3 | 0.00 | 0.00 | 0.00 | 42 | 1017.8 |
| 20260502225551 | 20 | 108 | 3.2 | 11.3 | 0.00 | 0.00 | 0.00 | 42 | 1017.8 |
| 20260502225052 | 20 | 222 | 1.6 | 11.3 | 0.00 | 0.00 | 0.00 | 39 | 1017.8 |
| 20260502224556 | 21 | 110 | 1.6 | 11.3 | 0.00 | 0.00 | 0.00 | 41 | 1017.8 |
| 20260502224052 | 21 | 171 | 3.2 | 11.3 | 0.00 | 0.00 | 0.00 | 40 | 1017.7 |
| 20260502223552 | 21 | 124 | 1.6 | 12.9 | 0.00 | 0.00 | 0.00 | 41 | 1017.6 |
| 20260502223057 | 21 | 155 | 1.6 | 12.9 | 0.00 | 0.00 | 0.00 | 43 | 1017.7 |